Location: Unspecified
(0.0000°N, 0.0000°E)
Time: 01:26:51
(UTC+01:00)

ARIANE 5 R/B - Visible Passes

Search period start: 12 December 2017 00:00
Search period end: 22 December 2017 00:00
Orbit: 532 x 35593 km, 4.8° (Epoch: 10 December)

Date Brightness Start Highest point End Pass type
(mag) Time Alt. Az. Time Alt. Az. Time Alt. Az.
12 Dec 9.7 19:45:48 10° E 22:15:52 22° E 23:33:13 10° E visible
13 Dec 7.1 22:24:49 10° W 00:11:25 57° W 08:16:50 10° ENE visible
14 Dec 8.3 19:15:20 10° W 19:43:54 84° S 05:15:31 10° E visible
15 Dec 7.0 16:13:56 10° W 00:20:49 57° E 02:06:14 10° E visible
17 Dec 9.9 00:58:16 10° W 02:15:43 22° W 04:44:51 10° W visible
17 Dec 7.6 21:22:39 10° W 23:11:06 70° WSW 07:18:49 10° E visible
18 Dec 7.9 18:16:35 10° W 18:34:35 85° S 04:16:15 10° E visible
19 Dec 6.3 15:16:01 10° W 23:20:52 44° E 01:01:42 10° E visible
20 Dec 9.7 23:42:25 10° W 01:17:46 34° W 05:28:18 10° W visible
